Location: Ammerl�gen
(47.2167°N, 9.6000°E)
Time: 01:59:25
(UTC+00:00)

ISS - Pass Details

Date: 30 September 2021
Orbit: 417 x 423 km, 51.6° (Epoch: 25 October)

Event Time Altitude Azimuth Distance (km) Brightness Sun altitude
Rises 19:03:30 0° 294° (WNW) 2,367 1.6 -21.0°
Reaches altitude 10° 19:05:36 10° 292° (WNW) 1,502 0.2 -21.3°
Enters shadow 19:08:31 60° 260° (W) 486 -3.3 -21.8°
